GW4812 Weather Reports


Display with metric or nautical units.
time (UTC)temp
F
wind
direction
speed
MPH
gust
MPH
rain 1hr
in
rain 24hr
in
rain mn
in
humidity
%
barometer
mb
20260503055053 47 219 0.0 1.0 0.00 0.00 0.00 53 1011.0
20260503054554 47 210 1.0 1.0 0.00 0.00 0.00 53 1011.0
20260503054053 47 260 1.0 2.0 0.00 0.00 0.00 50 1011.0
20260503053553 48 0 0.0 0.0 0.00 0.00 0.00 51 1011.0
20260503053052 48 178 0.0 1.0 0.00 0.00 0.00 50 1011.0
20260503052552 48 354 1.0 2.0 0.00 0.00 0.00 50 1011.0
20260503052052 48 187 1.0 2.0 0.00 0.00 0.00 50 1011.0
20260503051552 48 47 0.0 0.0 0.00 0.00 0.00 50 1011.0
20260503051053 48 171 0.0 1.0 0.00 0.00 0.00 50 1011.0
20260503050552 48 323 0.0 1.0 0.00 0.00 0.00 50 1011.0
20260503050053 48 240 0.0 1.0 0.00 0.00 0.00 50 1011.0
20260503045552 48 282 2.0 2.0 0.00 0.00 0.00 49 1011.0
20260503045052 49 0 0.0 0.0 0.00 0.00 0.00 50 1011.0
20260503044552 49 61 1.0 1.0 0.00 0.00 0.00 48 1011.0
20260503044052 49 311 1.0 2.0 0.00 0.00 0.00 49 1011.0
20260503043552 49 77 1.0 1.0 0.00 0.00 0.00 48 1011.0
20260503043053 49 355 0.0 0.0 0.00 0.00 0.00 48 1011.0
20260503042552 49 238 1.0 3.0 0.00 0.00 0.00 49 1011.0
20260503042052 49 0 0.0 0.0 0.00 0.00 0.00 48 1011.0
20260503041552 49 321 2.0 2.0 0.00 0.00 0.00 48 1011.0
20260503041052 49 322 1.0 2.0 0.00 0.00 0.00 48 1011.0
20260503040553 49 300 1.0 1.0 0.00 0.00 0.00 48 1011.0
20260503040053 49 279 2.0 3.0 0.00 0.00 0.00 47 1011.0
20260503035553 49 281 0.0 1.0 0.00 0.00 0.00 48 1011.0
20260503035054 49 336 0.0 1.0 0.00 0.00 0.00 48 1011.0
20260503034552 49 90 0.0 0.0 0.00 0.00 0.00 48 1011.0
20260503034053 49 332 0.0 0.0 0.00 0.00 0.00 48 1011.0
20260503033552 49 229 1.0 2.0 0.00 0.00 0.00 48 1011.0
20260503033052 49 0 0.0 0.0 0.00 0.00 0.00 49 1011.0
20260503032553 49 68 0.0 1.0 0.00 0.00 0.00 50 1011.0
20260503032053 49 275 0.0 0.0 0.00 0.00 0.00 49 1011.0
20260503031552 49 296 0.0 0.0 0.00 0.00 0.00 49 1011.0
20260503031052 49 313 0.0 0.0 0.00 0.00 0.00 49 1011.0
20260503030553 50 270 0.0 1.0 0.00 0.00 0.00 48 1011.0
20260503030053 50 340 0.0 1.0 0.00 0.00 0.00 46 1011.0
20260503025552 50 334 0.0 1.0 0.00 0.00 0.00 48 1011.0
20260503025052 50 220 0.0 0.0 0.00 0.00 0.00 47 1011.0
20260503024552 50 14 0.0 1.0 0.00 0.00 0.00 47 1011.0
20260503024052 50 90 0.0 1.0 0.00 0.00 0.00 47 1011.0
20260503023553 50 286 1.0 2.0 0.00 0.00 0.00 46 1011.0
20260503023053 50 245 1.0 2.0 0.00 0.00 0.00 46 1011.0
20260503022552 50 161 0.0 1.0 0.00 0.00 0.00 47 1011.0
20260503022053 51 0 0.0 0.0 0.00 0.00 0.00 47 1011.0
20260503021552 51 203 1.0 1.0 0.00 0.00 0.00 47 1011.0
20260503021053 51 0 0.0 0.0 0.00 0.00 0.00 45 1011.0
20260503020552 51 0 0.0 0.0 0.00 0.00 0.00 47 1011.0
20260503020053 51 230 1.0 1.0 0.00 0.00 0.00 46 1011.0
20260503015552 51 303 1.0 1.0 0.00 0.00 0.00 46 1011.0
20260503015053 51 239 0.0 1.0 0.00 0.00 0.00 45 1011.0
20260503014552 51 0 0.0 0.0 0.00 0.00 0.00 44 1011.0
20260503014054 51 271 0.0 2.0 0.00 0.00 0.00 46 1012.0
20260503013552 51 256 1.0 2.0 0.00 0.00 0.00 46 1011.0
20260503013053 51 259 0.0 1.0 0.00 0.00 0.00 47 1011.0
20260503012553 51 292 0.0 1.0 0.00 0.00 0.00 49 1011.0
20260503012052 51 282 0.0 1.0 0.00 0.00 0.00 49 1011.0
20260503011552 51 260 1.0 2.0 0.00 0.00 0.00 50 1011.0
20260503011052 51 272 1.0 1.0 0.00 0.00 0.00 50 1011.0
20260503010553 51 257 0.0 1.0 0.00 0.00 0.00 50 1011.0
20260503010053 51 274 0.0 1.0 0.00 0.00 0.00 50 1011.0
20260503005553 51 272 1.0 2.0 0.00 0.00 0.00 49 1011.0
20260503005053 52 0 0.0 0.0 0.00 0.00 0.00 51 1011.0
20260503004552 52 250 0.0 2.0 0.00 0.00 0.00 49 1011.0
20260503004053 52 262 0.0 1.0 0.00 0.00 0.00 49 1011.0
20260503003553 52 254 0.0 0.0 0.00 0.00 0.00 49 1011.0
20260503003052 52 265 1.0 1.0 0.00 0.00 0.00 48 1011.0
20260503002552 52 277 0.0 1.0 0.00 0.00 0.00 48 1011.0
20260503002052 53 273 1.0 1.0 0.00 0.00 0.00 47 1011.0
20260503001552 53 259 0.0 1.0 0.00 0.00 0.00 46 1011.0
20260503001052 53 0 0.0 0.0 0.00 0.00 0.00 44 1011.0
20260503000552 53 0 0.0 0.0 0.00 0.00 0.00 44 1011.0
20260503000052 53 242 0.0 1.0 0.00 0.00 0.00 43 1011.0
20260502235553 53 305 0.0 1.0 0.00 0.00 0.00 44 1011.0
20260502235053 54 266 0.0 0.0 0.00 0.00 0.00 43 1011.0
20260502234552 54 0 0.0 0.0 0.00 0.00 0.00 45 1011.0
20260502234052 54 246 0.0 1.0 0.00 0.00 0.00 44 1011.0
20260502233552 55 191 0.0 0.0 0.00 0.00 0.00 42 1011.0
20260502233052 55 226 0.0 0.0 0.00 0.00 0.00 42 1011.0
20260502232552 55 0 0.0 0.0 0.00 0.00 0.00 42 1011.0
20260502232053 55 266 0.0 1.0 0.00 0.00 0.00 40 1010.0
20260502231552 55 203 1.0 2.0 0.00 0.00 0.00 39 1010.0
20260502231052 56 204 0.0 1.0 0.00 0.00 0.00 39 1010.0
20260502230552 56 246 0.0 0.0 0.00 0.00 0.00 41 1010.0
20260502230053 56 82 0.0 1.0 0.00 0.00 0.00 39 1010.0
20260502225553 56 287 0.0 0.0 0.00 0.00 0.00 39 1010.0
20260502225052 56 40 0.0 1.0 0.00 0.00 0.00 41 1010.0
20260502224552 57 40 0.0 2.0 0.00 0.00 0.00 41 1010.0
20260502224055 57 213 0.0 1.0 0.00 0.00 0.00 38 1010.0
20260502223552 57 243 0.0 2.0 0.00 0.00 0.00 40 1010.0
20260502223053 57 199 0.0 0.0 0.00 0.00 0.00 38 1010.0
20260502222552 57 285 0.0 1.0 0.00 0.00 0.00 40 1010.0
20260502222053 57 189 0.0 2.0 0.00 0.00 0.00 39 1010.0
20260502221552 57 212 1.0 2.0 0.00 0.00 0.00 40 1010.0
20260502221052 57 203 2.0 3.0 0.00 0.00 0.00 38 1010.0
20260502220552 57 46 0.0 2.0 0.00 0.00 0.00 40 1010.0
20260502220053 57 248 2.0 3.0 0.00 0.00 0.00 38 1010.0
20260502215553 57 238 2.0 2.0 0.00 0.00 0.00 38 1010.0
20260502215052 58 214 0.0 1.0 0.00 0.00 0.00 39 1010.0
20260502214552 58 194 1.0 2.0 0.00 0.00 0.00 39 1010.0
20260502214052 58 197 2.0 3.0 0.00 0.00 0.00 40 1010.0
20260502213553 58 0 0.0 0.0 0.00 0.00 0.00 40 1010.0
20260502213053 58 78 0.0 1.0 0.00 0.00 0.00 41 1010.0
20260502212552 58 0 0.0 0.0 0.00 0.00 0.00 39 1010.0
20260502212053 58 177 1.0 2.0 0.00 0.00 0.00 38 1010.0
20260502211552 58 52 0.0 0.0 0.00 0.00 0.00 39 1010.0
20260502211052 58 0 0.0 0.0 0.00 0.00 0.00 39 1010.0
20260502210553 58 285 0.0 1.0 0.00 0.00 0.00 38 1010.0
20260502210052 58 211 0.0 1.0 0.00 0.00 0.00 39 1010.0
20260502205553 59 111 0.0 1.0 0.00 0.00 0.00 38 1010.0
20260502205053 59 0 0.0 0.0 0.00 0.00 0.00 39 1010.0
20260502204552 59 292 1.0 2.0 0.00 0.00 0.00 39 1010.0
20260502204052 59 152 1.0 2.0 0.00 0.00 0.00 39 1010.0
20260502203553 59 74 0.0 1.0 0.00 0.00 0.00 38 1010.0
20260502203052 60 200 2.0 2.0 0.00 0.00 0.00 37 1010.0
20260502202552 61 231 2.0 5.0 0.00 0.00 0.00 36 1010.0
20260502202053 61 83 2.0 3.0 0.00 0.00 0.00 37 1010.0
20260502201553 61 0 0.0 0.0 0.00 0.00 0.00 37 1010.0
20260502201052 61 233 1.0 3.0 0.00 0.00 0.00 36 1010.0
20260502200552 60 222 1.0 3.0 0.00 0.00 0.00 36 1010.0
20260502200053 60 331 1.0 2.0 0.00 0.00 0.00 37 1010.0
20260502195552 59 75 1.0 2.0 0.00 0.00 0.00 37 1010.0
20260502195052 59 243 1.0 3.0 0.00 0.00 0.00 39 1010.0
20260502194552 58 197 1.0 3.0 0.00 0.00 0.00 41 1010.0
20260502194052 58 214 1.0 3.0 0.00 0.00 0.00 39 1010.0
20260502193552 58 267 1.0 3.0 0.00 0.00 0.00 40 1010.0
20260502193052 59 103 1.0 2.0 0.00 0.00 0.00 41 1011.0
20260502192553 59 256 2.0 3.0 0.00 0.00 0.00 41 1011.0
20260502192053 59 193 0.0 2.0 0.00 0.00 0.00 38 1011.0
20260502191552 59 252 0.0 2.0 0.00 0.00 0.00 42 1011.0
20260502191052 58 281 1.0 2.0 0.00 0.00 0.00 42 1011.0
20260502190552 58 117 2.0 4.0 0.00 0.00 0.00 40 1011.0
20260502190052 58 111 1.0 3.0 0.00 0.00 0.00 43 1011.0
20260502185553 58 105 1.0 3.0 0.00 0.00 0.00 42 1011.0
20260502185052 57 14 1.0 2.0 0.00 0.00 0.00 43 1011.0
20260502184553 57 246 2.0 4.0 0.00 0.00 0.00 42 1011.0
20260502184052 57 0 0.0 0.0 0.00 0.00 0.00 44 1011.0
20260502183553 57 80 0.0 2.0 0.00 0.00 0.00 43 1011.0
20260502183052 57 268 0.0 2.0 0.00 0.00 0.00 43 1011.0
20260502182552 57 178 0.0 1.0 0.00 0.00 0.00 42 1011.0
20260502182053 56 282 2.0 4.0 0.00 0.00 0.00 42 1011.0
20260502181553 57 167 4.0 5.0 0.00 0.00 0.00 39 1011.0
20260502181053 57 59 1.0 2.0 0.00 0.00 0.00 43 1011.0
20260502180552 57 42 1.0 2.0 0.00 0.00 0.00 45 1011.0
20260502164053 56 144 1.0 4.0 0.00 0.00 0.00 48 1012.0
20260502163552 56 329 1.0 2.0 0.00 0.00 0.00 44 1012.0
20260502163052 56 206 0.0 2.0 0.00 0.00 0.00 49 1012.0
20260502162553 56 166 1.0 2.0 0.00 0.00 0.00 47 1012.0
20260502162053 56 204 3.0 6.0 0.00 0.00 0.00 47 1012.0
20260502161552 56 160 2.0 4.0 0.00 0.00 0.00 48 1012.0
20260502161052 55 220 0.0 1.0 0.00 0.00 0.00 50 1012.0
20260502160552 55 251 2.0 3.0 0.00 0.00 0.00 49 1012.0
20260502152053 53 290 0.0 2.0 0.00 0.00 0.00 55 1012.0
20260502151553 53 342 1.0 3.0 0.00 0.00 0.00 55 1012.0
20260502151053 53 329 3.0 4.0 0.00 0.00 0.00 57 1012.0
20260502150552 52 263 1.0 2.0 0.00 0.00 0.00 58 1012.0
20260502130552 50 136 1.0 2.0 0.00 0.00 0.00 77 1012.0
20260502123552 50 303 1.0 2.0 0.00 0.00 0.00 80 1012.0
20260502123053 50 100 1.0 2.0 0.00 0.00 0.00 80 1012.0
20260502122552 50 62 1.0 2.0 0.00 0.00 0.00 82 1012.0
20260502122053 50 231 0.0 1.0 0.00 0.00 0.00 83 1012.0
20260502121552 50 269 1.0 2.0 0.00 0.00 0.00 84 1012.0
20260502121052 49 244 1.0 2.0 0.00 0.00 0.00 84 1012.0
20260502120552 49 236 1.0 2.0 0.00 0.00 0.00 85 1012.0
20260502115553 49 200 0.0 0.0 0.00 0.00 0.00 85 1012.0
20260502115053 49 249 0.0 1.0 0.00 0.00 0.00 85 1012.0
20260502114552 48 249 2.0 2.0 0.00 0.00 0.00 86 1012.0
20260502114053 48 235 0.0 1.0 0.00 0.00 0.00 87 1012.0
20260502113553 48 244 1.0 1.0 0.00 0.00 0.00 87 1012.0
20260502113053 48 285 1.0 2.0 0.00 0.00 0.00 87 1012.0
20260502112553 47 265 0.0 1.0 0.00 0.00 0.00 88 1012.0
20260502112052 47 310 0.0 0.0 0.00 0.00 0.00 89 1012.0
20260502111552 47 208 0.0 0.0 0.00 0.00 0.00 90 1012.0
20260502111052 47 331 0.0 0.0 0.00 0.00 0.00 91 1012.0
20260502110553 47 291 1.0 2.0 0.00 0.00 0.00 91 1012.0
20260502110053 46 261 1.0 1.0 0.00 0.00 0.00 92 1012.0
20260502105552 46 271 0.0 0.0 0.00 0.00 0.00 92 1012.0
20260502105052 46 223 1.0 1.0 0.00 0.00 0.00 93 1012.0
20260502104553 46 250 1.0 1.0 0.00 0.00 0.00 93 1012.0
20260502104052 45 222 1.0 1.0 0.00 0.00 0.00 93 1012.0
20260502103552 45 261 0.0 0.0 0.00 0.00 0.00 92 1012.0
20260502103053 45 212 0.0 1.0 0.00 0.00 0.00 92 1012.0
20260502102552 45 0 0.0 0.0 0.00 0.00 0.00 92 1012.0
20260502102052 45 239 0.0 1.0 0.00 0.00 0.00 92 1012.0
20260502101552 46 337 0.0 0.0 0.00 0.00 0.00 92 1012.0
20260502101052 46 286 0.0 0.0 0.00 0.00 0.00 92 1012.0
20260502100552 46 276 1.0 1.0 0.00 0.00 0.00 91 1012.0
20260502091052 49 0 0.0 0.0 0.00 0.00 0.00 87 1011.0
20260502090552 49 180 0.0 0.0 0.00 0.00 0.00 87 1011.0
20260502071053 50 0 0.0 0.0 0.00 0.00 0.00 81 1011.0
20260502070552 50 0 0.0 0.0 0.00 0.00 0.00 80 1011.0
20260502070053 50 240 1.0 2.0 0.00 0.00 0.00 79 1011.0
20260502065552 50 254 1.0 2.0 0.00 0.00 0.00 80 1011.0
20260502065052 51 0 0.0 0.0 0.00 0.00 0.00 80 1011.0
20260502064552 51 0 0.0 0.0 0.00 0.00 0.00 78 1011.0
20260502064052 51 0 0.0 0.0 0.00 0.00 0.00 78 1011.0
20260502063553 51 237 0.0 0.0 0.00 0.00 0.00 77 1011.0
20260502063052 51 0 0.0 0.0 0.00 0.00 0.00 78 1011.0
20260502062552 52 262 1.0 2.0 0.00 0.00 0.00 77 1012.0
20260502062052 52 0 0.0 0.0 0.00 0.00 0.00 74 1011.0